Temperature
7 8 8 8 8 8 8 8 8 8 7 8 8 8 8 8 8 8 8 8 8 8 8 8 8 8 8 8 8 8 7 7 7 7 7 7 7 7
7 7 7 8 8 8 8 8 8 8 7 7 8 8 8 8 8 7 7 7 7 7 7 7 7 7 7 7 7 7 7 7 7 7 7 7 6 6
7 7 7 7 8 8 8 8 8 8 7 7 7 7 7 7 7 7 7 7 7 7 7 7 7 7 7 7 7 7 7 7 7 6 6 6 6 6
6 6 7 7 7 7 7 7 7 7 7 7 7 7 7 7 7 7 7 7 7 7 7 7 6 6 6 6 6 6 6 6 6 6 6 6 5 5
6 6 6 6 7 7 7 7 7 7 7 7 7 7 7 6 6 6 6 6 6 6 6 6 6 6 6 6 6 6 6 6 6 5 5 5 5 5
5 5 6 6 6 6 7 7 7 6 6 6 6 6 6 6 6 6 6 6 6 6 6 6 6 6 6 5 5 5 5 5 5 5 5 5 4 4
4 5 5 5 6 6 6 6 6 6 6 6 6 6 6 6 6 6 5 5 5 5 5 5 5 5 5 5 5 5 5 5 5 4 4 4 4 4
4 4 5 5 5 5 5 6 6 6 6 5 5 5 5 6 5 5 5 5 5 5 5 5 5 5 5 5 5 5 4 4 4 4 4 4 3 3
4 4 4 4 4 5 5 5 5 5 5 5 5 5 5 5 5 5 5 4 4 4 4 4 4 4 4 4 4 4 4 4 4 3 3 3 3 3
3 3 3 4 4 4 4 4 4 4 5 5 5 5 5 5 5 5 4 4 4 4 4 4 4 4 4 4 4 4 4 3 3 3 3 2 2 2
2 2 3 3 3 3 3 4 4 4 4 4 4 4 4 4 4 4 4 3 3 3 3 3 3 3 3 3 3 3 3 3 3 2 2 2 2 2
1 2 2 2 3 3 3 3 3 3 3 3 3 3 3 3 3 3 3 3 3 2 3 3 3 3 2 3 3 2 2 2 2 2 2 1 1 1
1 1 1 2 2 2 2 2 2 3 2 2 2 2 2 2 2 3 3 2 2 2 2 2 2 2 1 1 2 2 2 1 1 1 1 1 0 0
-0 0 1 1 1 1 1 2 2 2 2 2 2 2 2 2 2 2 2 2 2 2 1 1 1 1 1 0 0 1 1 1 0 0 0 -0 -0 -0
-1 -0 -0 0 1 1 1 1 1 1 1 1 1 1 1 1 1 1 1 1 1 1 1 1 1 0 0 -0 -0 -0 -0 -0 -0 -1 -1 -1 -1 -1
-1 -1 -1 -1 -0 -0 -0 0 0 0 0 1 1 1 1 0 0 0 0 0 0 0 0 -0 -0 -0 -1 -1 -1 -1 -1 -1 -1 -1 -1 -1 -2 -2
-2 -2 -2 -1 -1 -1 -1 -1 -1 -1 -1 -0 -0 -0 -0 -0 -0 -0 -0 -0 -1 -1 -1 -1 -1 -1 -1 -1 -1 -1 -1 -1 -2 -2 -2 -2 -2 -2
-2 -2 -2 -2 -2 -2 -2 -1 -1 -1 -1 -1 -1 -1 -1 -1 -1 -1 -1 -1 -1 -1 -1 -1 -1 -1 -2 -2 -2 -2 -2 -2 -2 -2 -3 -3 -2 -2
-3 -3 -3 -3 -3 -3 -2 -2 -2 -2 -1 -1 -1 -1 -1 -1 -1 -1 -2 -2 -2 -2 -2 -2 -2 -2 -2 -2 -2 -2 -3 -3 -3 -3 -3 -3 -3 -3
-4 -3 -3 -3 -3 -3 -3 -3 -2 -2 -2 -2 -2 -2 -2 -2 -2 -2 -2 -2 -2 -2 -2 -2 -2 -2 -3 -3 -3 -3 -3 -3 -4 -4 -4 -4 -4 -4
-4 -4 -4 -4 -4 -3 -3 -3 -3 -3 -3 -2 -2 -2 -2 -3 -3 -2 -3 -3 -3 -3 -3 -3 -3 -3 -3 -4 -4 -4 -4 -4 -4 -5 -5 -5 -5 -5
-5 -5 -5 -5 -4 -4 -4 -4 -3 -3 -3 -3 -3 -3 -3 -3 -3 -3 -3 -3 -3 -3 -3 -4 -4 -4 -4 -4 -5 -5 -4 -5 -5 -5 -5 -6 -6 -6
-6 -6 -5 -5 -5 -5 -4 -4 -4 -4 -4 -4 -4 -3 -3 -4 -3 -3 -3 -4 -4 -4 -4 -4 -4 -4 -5 -5 -5 -5 -5 -5 -6 -6 -6 -6 -6 -6
Wind_Speed
8 8 7 6 6 6 6 6 6 5 5 5 4 5 5 5 6 6 5 6 7 6 5 4 4 4 3 3 4 3 3 3 3 2 1 1 2 2
6 8 8 6 6 6 6 6 6 6 5 4 4 4 5 5 6 6 6 6 7 7 6 5 5 5 4 4 4 4 4 5 4 3 2 2 3 3
8 8 9 8 7 6 6 6 6 6 6 4 3 4 5 6 6 6 6 5 6 8 8 7 7 6 5 5 5 5 5 5 5 4 4 4 4 4
9 9 9 7 8 7 6 7 7 7 6 6 4 4 5 6 6 6 5 5 5 6 8 9 8 7 7 6 5 5 6 6 5 5 4 4 4 5
9 10 9 9 9 7 8 7 6 6 6 6 5 3 3 4 5 5 5 5 5 5 7 8 9 8 8 7 7 6 6 6 6 6 5 5 5 5
8 9 9 10 9 9 8 8 7 7 6 6 5 4 4 4 5 5 5 5 4 5 6 6 7 8 8 8 8 7 7 7 6 6 6 6 5 5
6 7 8 8 8 8 7 8 8 7 6 6 5 5 5 5 6 5 5 4 4 4 4 5 5 5 6 8 9 8 8 7 7 6 6 6 6 6
6 6 6 6 7 8 8 9 9 9 8 7 6 7 8 7 6 5 5 4 4 4 4 4 4 4 5 6 7 8 7 7 6 5 4 4 5 6
6 6 5 5 7 7 7 7 8 8 9 8 8 9 8 7 7 7 7 6 4 3 3 3 3 4 4 4 5 7 7 7 6 6 5 5 5 6
7 7 7 7 7 8 7 7 8 8 8 8 8 7 7 7 7 6 6 4 1 2 3 3 3 3 3 4 5 7 7 7 7 6 6 6 6 7
7 7 7 8 8 8 8 8 7 6 6 7 6 5 5 6 7 5 5 4 3 3 3 2 2 2 2 3 4 6 7 7 7 7 6 6 6 7
5 6 7 8 8 9 8 8 8 7 5 4 4 4 5 6 8 7 6 6 3 3 4 3 2 2 2 2 3 4 5 6 6 6 6 6 6 5
5 5 5 7 8 9 8 8 8 6 5 6 5 4 3 3 4 5 4 5 4 3 4 4 2 2 2 2 2 3 3 4 4 5 6 7 7 6
5 4 4 4 5 6 7 6 7 6 5 5 5 4 4 4 3 4 4 3 1 2 5 5 3 3 3 2 2 2 3 4 4 4 4 5 7 8
4 3 3 3 4 4 5 5 5 5 5 5 5 5 4 4 3 3 3 3 2 1 3 4 3 3 3 3 3 2 2 3 4 4 4 5 5 5
2 2 3 3 3 3 3 3 4 4 5 5 5 4 3 3 3 3 3 3 2 1 1 3 4 4 3 4 4 4 3 3 2 4 4 5 6 7
3 2 2 2 2 2 3 3 3 3 4 4 4 4 4 4 3 3 3 3 3 3 2 1 2 2 2 3 4 4 4 4 4 3 3 5 6 7
3 3 3 3 3 3 3 3 3 3 4 4 4 4 4 4 4 3 3 4 4 4 3 2 2 2 2 3 5 5 4 4 4 4 4 5 6 6
3 3 3 3 3 3 3 3 3 2 3 4 4 4 4 4 4 4 4 4 4 4 3 3 3 3 4 4 3 6 5 4 3 4 5 5 6 6
2 3 3 3 3 3 3 2 3 2 3 3 4 4 4 4 5 5 5 5 4 4 3 3 4 4 5 4 3 2 5 5 4 5 5 5 6 7
2 2 2 2 2 2 2 2 3 3 3 3 3 4 4 4 5 5 5 5 5 4 5 4 3 3 1 1 2 3 3 4 5 4 4 4 5 5
2 2 2 2 2 2 2 2 2 2 3 3 3 3 3 4 5 5 5 5 5 4 4 2 2 2 2 4 4 4 3 3 4 5 7 7 4 4
2 2 2 2 2 2 2 2 3 2 3 3 3 3 3 3 3 4 4 4 4 4 3 3 2 2 3 3 4 3 4 4 3 3 4 7 9 11
Wind_Direction
214 213 214 211 204 205 204 204 203 212 222 209 200 197 197 195 186 188 191 187 193 197 200 208 207 204 210 220 217 211 198 192 194 204 226 279 297 303
213 212 213 211 203 202 204 210 216 216 225 212 208 201 192 190 187 191 192 186 195 198 202 206 205 206 210 218 220 212 204 199 202 215 241 270 283 290
209 213 213 208 203 202 202 206 209 209 218 222 213 196 201 195 186 193 196 198 203 206 207 208 210 213 214 220 227 219 212 204 208 223 239 257 273 282
210 210 215 208 205 204 203 205 207 205 208 216 213 203 214 204 195 195 198 205 210 207 210 210 211 215 217 221 224 222 215 210 213 223 239 254 265 278
212 209 212 210 207 205 205 207 208 203 204 209 212 206 217 202 200 203 203 206 212 207 210 215 218 220 220 221 218 219 217 215 215 224 236 248 260 274
218 215 215 212 211 208 206 206 203 198 194 196 202 204 209 202 202 205 211 214 215 207 215 219 220 220 222 220 218 217 217 218 221 228 236 244 254 266
221 219 221 220 219 216 210 205 201 200 195 198 200 204 205 195 206 205 214 215 224 207 210 213 215 223 223 221 221 219 220 223 228 232 238 244 252 260
223 221 221 218 216 216 216 209 204 202 202 202 208 210 214 210 204 202 200 205 222 198 211 227 216 227 230 231 219 214 216 221 224 229 239 251 257 263
229 223 218 215 213 215 213 210 211 213 211 210 213 217 214 207 197 200 205 211 227 188 193 227 216 230 230 224 216 208 209 214 217 225 239 253 262 267
235 230 222 216 212 209 211 216 220 220 217 217 218 220 216 206 203 203 202 206 205 192 196 221 219 230 225 220 213 214 216 218 223 230 240 251 260 266
239 234 229 222 206 201 206 211 217 221 213 208 213 206 194 187 183 176 177 186 219 216 204 214 215 230 232 228 217 216 220 225 231 237 241 248 258 264
238 234 230 224 207 200 208 209 213 214 198 190 187 181 180 180 184 197 197 198 204 210 193 194 195 195 232 227 222 218 225 234 239 243 243 246 252 262
236 234 231 216 209 206 213 217 215 208 198 191 190 187 174 177 188 197 202 202 203 214 181 184 196 204 215 226 235 229 225 233 240 245 243 246 248 252
240 238 227 207 206 208 215 211 201 195 192 187 186 191 191 194 193 183 174 168 176 194 176 177 193 198 200 221 240 233 240 247 245 247 246 251 253 255
236 224 215 204 203 207 199 195 196 196 191 190 194 201 198 188 175 166 150 135 105 127 176 185 189 192 206 220 227 232 253 254 243 249 256 259 261 261
225 196 193 202 207 197 194 201 208 201 196 195 194 188 173 169 179 187 190 177 176 201 178 194 197 199 217 226 228 240 240 239 247 257 265 271 268 262
201 212 213 202 208 205 198 199 197 193 195 190 185 180 180 182 189 187 192 192 203 207 206 198 192 203 236 233 235 240 244 254 255 260 264 270 266 262
203 206 212 210 214 218 205 201 205 205 200 192 189 190 188 188 189 189 193 200 208 214 212 201 185 195 232 251 233 236 244 252 258 257 259 268 274 271
205 205 210 209 210 221 213 207 212 214 200 192 192 192 190 189 190 195 199 206 217 219 214 203 202 207 225 247 239 216 234 251 256 259 260 263 273 280
218 214 216 218 213 218 217 206 204 201 193 188 190 192 192 192 194 200 203 209 215 217 216 212 214 218 228 243 251 257 237 243 252 261 272 277 281 286
230 224 225 224 226 224 223 212 204 202 194 188 189 191 196 196 201 205 208 208 214 216 220 227 227 212 222 226 253 260 270 254 250 260 271 279 286 288
245 231 230 229 231 229 225 215 206 203 197 197 197 196 199 202 206 208 209 209 212 215 223 222 188 192 220 231 246 259 278 292 284 272 264 258 265 268
261 251 238 234 232 230 226 216 210 212 207 205 204 205 204 208 211 210 211 211 211 210 209 210 210 222 234 236 248 263 274 286 294 291 286 280 271 274
Height
1525 1527 1530 1532 1534 1536 1539 1541 1543 1544 1546 1546 1547 1548 1549 1551 1552 1552 1553 1554 1554 1555 1556 1556 1557 1557 1557 1557 1556 1556 1556 1555 1555 1555 1554 1554 1553 1552
1520 1522 1524 1527 1529 1532 1534 1536 1538 1540 1541 1542 1543 1544 1545 1547 1548 1549 1550 1550 1551 1552 1552 1553 1553 1554 1554 1553 1553 1553 1553 1552 1552 1552 1551 1551 1550 1549
1514 1517 1519 1522 1524 1526 1529 1531 1533 1535 1536 1537 1539 1540 1541 1542 1543 1545 1546 1546 1547 1548 1548 1549 1550 1550 1550 1550 1550 1549 1549 1549 1549 1548 1548 1547 1546 1546
1508 1511 1514 1516 1519 1521 1523 1525 1528 1530 1532 1532 1534 1535 1537 1538 1539 1540 1541 1542 1543 1543 1544 1545 1545 1546 1546 1546 1546 1546 1545 1545 1545 1545 1545 1544 1543 1542
1502 1505 1508 1511 1513 1515 1518 1520 1522 1524 1526 1528 1529 1530 1532 1533 1534 1535 1536 1537 1538 1539 1540 1541 1541 1542 1542 1542 1542 1542 1542 1541 1541 1541 1541 1540 1539 1538
1497 1500 1503 1505 1507 1510 1512 1515 1517 1519 1521 1522 1524 1525 1527 1528 1529 1530 1531 1533 1533 1534 1535 1536 1536 1537 1537 1538 1538 1538 1538 1538 1538 1537 1537 1536 1535 1535
1492 1495 1498 1500 1502 1505 1507 1509 1511 1513 1515 1517 1518 1520 1521 1522 1523 1525 1526 1528 1528 1529 1530 1531 1532 1532 1533 1533 1533 1534 1534 1534 1533 1533 1533 1532 1531 1530
1487 1490 1492 1494 1497 1499 1501 1503 1505 1507 1509 1511 1512 1514 1515 1517 1518 1519 1521 1522 1523 1525 1525 1526 1527 1527 1528 1529 1529 1529 1529 1529 1529 1529 1528 1528 1527 1526
1482 1484 1486 1489 1491 1493 1495 1498 1499 1501 1503 1505 1507 1508 1510 1511 1513 1514 1515 1517 1517 1519 1520 1521 1522 1523 1523 1523 1524 1524 1524 1524 1524 1524 1523 1523 1522 1521
1476 1479 1481 1483 1485 1487 1490 1492 1493 1495 1497 1499 1501 1503 1505 1506 1507 1509 1510 1511 1512 1514 1515 1515 1517 1518 1518 1518 1519 1519 1519 1519 1519 1519 1518 1518 1517 1516
1471 1473 1475 1477 1479 1482 1484 1485 1487 1489 1491 1493 1495 1497 1498 1500 1502 1503 1504 1506 1506 1508 1509 1510 1511 1512 1513 1513 1514 1514 1514 1514 1514 1513 1513 1512 1512 1511
1465 1467 1469 1471 1473 1475 1478 1479 1480 1482 1485 1486 1489 1490 1492 1494 1496 1497 1499 1500 1501 1502 1503 1505 1505 1507 1507 1508 1508 1509 1508 1508 1508 1508 1507 1507 1506 1505
1460 1461 1463 1465 1467 1469 1472 1473 1475 1478 1479 1481 1482 1484 1486 1488 1489 1491 1493 1495 1496 1497 1498 1500 1500 1501 1502 1502 1503 1503 1503 1503 1503 1502 1502 1501 1501 1500
1454 1456 1458 1460 1462 1464 1466 1468 1470 1473 1474 1475 1477 1478 1480 1482 1484 1486 1487 1489 1491 1492 1493 1495 1495 1496 1496 1497 1497 1498 1498 1498 1498 1497 1496 1496 1495 1494
1450 1451 1453 1455 1457 1459 1461 1463 1465 1467 1468 1469 1471 1473 1475 1477 1479 1481 1482 1484 1485 1487 1488 1490 1491 1491 1492 1492 1492 1492 1493 1493 1492 1492 1491 1490 1489 1488
1445 1447 1449 1451 1452 1454 1455 1457 1459 1461 1463 1464 1466 1468 1470 1472 1474 1476 1478 1479 1480 1481 1483 1485 1486 1487 1487 1487 1488 1487 1488 1487 1487 1487 1486 1485 1484 1483
1441 1443 1444 1446 1447 1448 1450 1452 1454 1456 1458 1459 1461 1463 1465 1467 1469 1471 1473 1474 1475 1476 1478 1479 1481 1481 1482 1482 1482 1482 1482 1482 1481 1481 1480 1479 1478 1477
1438 1438 1440 1441 1442 1444 1445 1447 1449 1451 1453 1454 1456 1458 1460 1462 1464 1466 1467 1469 1470 1471 1472 1474 1475 1476 1476 1476 1477 1476 1476 1476 1476 1475 1475 1473 1471 1471
1433 1434 1435 1436 1438 1440 1441 1443 1444 1446 1448 1450 1451 1453 1455 1457 1459 1461 1462 1464 1465 1466 1467 1469 1470 1470 1470 1470 1470 1471 1471 1470 1470 1469 1469 1467 1465 1464
1429 1430 1431 1433 1434 1436 1437 1439 1440 1442 1443 1445 1447 1449 1451 1452 1454 1456 1457 1459 1460 1461 1462 1463 1464 1465 1465 1466 1465 1465 1466 1465 1464 1463 1462 1461 1459 1458
1425 1426 1427 1429 1430 1432 1434 1435 1437 1438 1439 1441 1442 1444 1446 1448 1449 1451 1452 1454 1455 1456 1457 1458 1459 1461 1461 1461 1461 1460 1461 1461 1460 1458 1457 1455 1453 1451
1421 1422 1423 1425 1426 1428 1430 1431 1433 1434 1435 1437 1438 1440 1441 1443 1445 1446 1447 1449 1450 1451 1452 1454 1455 1455 1456 1455 1454 1454 1455 1455 1454 1453 1452 1451 1449 1446
1417 1419 1420 1421 1422 1424 1426 1427 1429 1430 1432 1433 1434 1436 1437 1439 1440 1442 1443 1444 1445 1446 1448 1449 1449 1450 1450 1450 1450 1449 1449 1449 1448 1448 1447 1446 1445 1443